Погода в Большой Кирсановке

Россия / Ростовская область     47°39′23″N   38°53′57″E
темп.,
°C
ветер,
м/с
пор.,
м/с
влажн.,
%
обл.,
%
осадки,
мм/ч
давл.,
гПа
погр.,
м
22 апреля, чт
чт2200:00+8ююз38865 0.0 1020189
03:00+7юз23925 0.0 102154
06:00+7ю22935 0.0 102226
09:00+12ююз23745 0.0 1022531
12:00+15ююз335818 0.9 10221280
15:00+16юз445391 2.3 10211517
18:00+14юз4562100 0.8 1021460
21:00+11зюз2377100 0.9 102254
23 апреля, пт
пт2300:00+10зюз248249 0.0 102282
03:00+8зюз33845 0.0 102349
06:00+7юз22860 0.0 102337
09:00+12юз35695 0.0 1023561
12:00+16юз565423 0.1 10211676
15:00+17юз774911 1.1 10201819
18:00+14юз6860100 0.0 1019761
21:00+11ююз4974100 0.0 1019356
24 апреля, сб
сб2400:00+10ююз41078100 0.0 1018445
03:00+9ююз4985100 0.0 1017289
06:00+9юз4109081 0.1 1016347
09:00+10зсз6779100 0.1 1017743
12:00+13зсз574923 0.0 10171827
15:00+14з8104193 0.0 10172426
18:00+13з594851 0.0 10181554
21:00+9з611545 0.0 1019354
25 апреля, вс
вс2500:00+6сз498398 0.0 1021535
03:00+4сз3871100 0.0 1022257
06:00+4сз257419 0.0 1023131
09:00+8ссз33445 0.0 10231137
12:00+11сз223560 0.0 10221780
15:00+12ссз1233100 0.0 10201984
18:00+11вюв1141100 0.0 1020487
21:00+9ююв1148100 0.0 102010
26 апреля, пн
пн2600:00+7юв1153100 0.0 102012
03:00+6ссз1158100 0.0 101810
06:00+6всв1161100 0.0 101810
09:00+10ю1149100 0.0 1018572
12:00+13зюз23395 0.0 10171650
15:00+15зюз353634 0.0 10162136
18:00+12сз66645 0.0 1016821
21:00+8ссз247859 0.0 101887